设万维读者为首页 广告服务 技术服务 联系我们 关于万维
分类广告
版主:
登录论坛
用户桌面
论坛排行榜
24小时热帖 一周热帖 一周网友人气排行榜 一周网友灌水排行榜
 
修车又记 Macan终于迎来对手!玛莎拉蒂将推出第
修车小记 日产会长戈恩被捕 全球最大车联盟面临
网络攻击导致燃油车抛锚, 特斯拉笑傲江 为什么买车一定要带一键启动 其实有3个
为啥最近特斯拉车事故特别多? 一头紫魅大蛮牛~~~
电动皮卡悍马EV 开车的时候只开一侧车窗 原来还有这么
晚舟归来(25):贝益民买了爱丽丝的二 13条新手上路开车技巧!老司机都得看看
特斯拉电动车刹车动能回收究竟有多牛逼 碰瓷
Honda被坑记 大货车爆胎
最高补贴合计11000加币,加拿大温哥华 小评自动驾驶
最大变化是轴距加长 测试奔驰GLC 300L 我就是喜欢开福特越野
全新奥迪A6L/雷克萨斯UX领衔 1月重磅新 怎么看一个人开车技术是好是坏?
保时捷Taycan更多消息曝光 或延续Turbo 这些轮胎的说法都是谣言,你知道吗?
一眼让你爱上它 全新奥迪A7静态体验 开了这么多年的车 你真的知道该怎么超
广本新款缤智申报图曝光 换装1.5T发动 日常八个不良用车习惯 正在悄悄毁你的
[ 首页 ] [ 上页 ] [ 下页 ] [ 末页 ]
按笔名搜索
标题/网友 时间 字节 点击 回复
修车又记- 席琳05/09/22 3738 463 0
江蘇省當局和烏克蘭當局是一丘之貉- FreeHiker04/28/22 516 555 0
加拿大无接触洗车全过程- firstsnow_104/28/22 449 559 0
摩托车充电要小心,可能会引发的火灾 - 3mworld04/03/22 336 1323 0
修车小记- 席琳03/27/22 3570 2715 2
04/07/22 317 85
04/10/22 461 96
What we know about BMW I3 2022- 小狗漫步03/21/22 132 1691 0
人工智能将解决该公司的长期问题- Will_Chen03/20/22 594 1744 0
Toyota Venza 2022 Presentation- 小狗漫步03/20/22 132 1792 1
04/10/22 60 58
Hyundai KONA N 2022 Presentation- 小狗漫步03/18/22 132 1793 0
The Acura Integra is Back - All-New 2023 Acura Int- 小狗漫步03/17/22 132 1803 0
The Audi A6 Avant e-tron concept​- 小狗漫步03/17/22 132 1851 0
What we know about Toyota Tacoma 2022- 小狗漫步03/16/22 132 1887 0
What we know about 2022 BMW IX3- 小狗漫步03/15/22 132 1893 0
What we know about Hyundai Staria 2022- 小狗漫步03/15/22 132 1880 0
The BMW X7 | Luxury without limits. 2022- 小狗漫步03/15/22 132 1925 0
What we know about Subaru WRX 2022- 小狗漫步03/14/22 132 1922 0
Facebook尚未采取行动- Will_Chen03/14/22 509 1943 0
What we know about BMW X4 2022- 小狗漫步03/14/22 132 1956 0
What we know about Land Rover Discovery 2022- 小狗漫步03/12/22 132 2031 0
What we know about Subaru BRZ 2022- 小狗漫步03/12/22 132 2033 0
Road Trip With a Porsche Taycan S 2022- 小狗漫步03/11/22 132 2083 0
What we know about 2022 Nissan Versa- 小狗漫步03/10/22 132 2126 0
The 2022 Hyundai Tucson Half and half Looks More i- 小狗漫步03/09/22 132 2139 0
2022 Mazda CX-60 plug-in hybrid (PHEV) crossover S- 小狗漫步03/09/22 132 2146 0
What we know about Jaguar F-Pace 2022- 小狗漫步03/07/22 132 2180 0
2022 Jeep Wrangler 4xe Plug-in Hybrid Review- 小狗漫步03/07/22 132 2204 0
Is there going to be a 2022 Genesis GV80? Should I- 小狗漫步03/07/22 132 2202 0
What we know about Volkswagen Golf 2022- 小狗漫步03/07/22 132 2246 0
2023 Honda Civic Preview- 小狗漫步03/07/22 132 2213 0
What we know about Mazda CX5 FAQ- 小狗漫步03/06/22 154 2373 0
What we know about Lincoln Nautilus 2022- 小狗漫步03/06/22 132 2425 0
What we know about VOLVO S90 2022- 小狗漫步03/05/22 132 2312 0
2023 Ford Everest Preview- 小狗漫步03/03/22 132 2350 0
What we know about Audi RS 7 2022- 小狗漫步03/03/22 132 2347 0
What we know about JAGUAR F TYPE 2022- 小狗漫步03/02/22 132 2349 0
2022 Polestar O₂ Presentation- 小狗漫步03/02/22 132 2361 0
What we know about Audi RS 3 2022- 小狗漫步03/01/22 132 2404 0
2022 Toyota Prius vs. 2022 Honda Insight- 小狗漫步03/01/22 132 2441 0
2021 Highlander vs. Subaru Ascent- 小狗漫步03/01/22 132 2434 0
What we know about Toyota Tundra 2022- 小狗漫步02/28/22 132 2455 0
2021 RAV4 vs 2021 Subaru Forester SUV Comparison- 小狗漫步02/27/22 132 2501 0
What we know about KIA EV6 2022- 小狗漫步02/27/22 132 2480 0
What we know about AUDI A7 2022- 小狗漫步02/26/22 132 2727 0
Polestar 2 Winter Test Drive 2022- 小狗漫步02/25/22 132 2789 0
2021 Toyota Tacoma vs. 2021 Chevrolet Colorado- 小狗漫步02/25/22 132 2825 0
What we know about Mercedes Benz AMG 2022- 小狗漫步02/25/22 132 2853 0
What we know about Audi Q4 E-tron 2022- 小狗漫步02/24/22 132 2798 0
What we know about Subaru Outback 2022- 小狗漫步02/23/22 132 2859 0
What we know about 2022 Toyota Mirai- 小狗漫步02/22/22 132 2822 0
What we know about Hyundai Ioniq 5 2022- 小狗漫步02/21/22 132 2833 0
What we know about Alfa Romeo Giulia 2022- 小狗漫步02/20/22 132 2841 0
What we know about BMW Z4 2022- 小狗漫步02/19/22 132 2871 0
What we know about : 2022 MAZDA MX-30 Good In Snow- 小狗漫步02/18/22 132 2869 0
What we know about 2022 Citroen DS4- 小狗漫步02/17/22 132 2899 0
What we know about Kia Souls 2022- 小狗漫步02/16/22 132 2907 0
What we know about Honda HR-V 2022- 小狗漫步02/15/22 132 2901 0
What we know about Range Rover Velar 2022- 小狗漫步02/14/22 132 2924 0
What we know about Subaru Impreza 2022- 小狗漫步02/14/22 132 2913 0
What we know about Mercedes GLA 2022- 小狗漫步02/12/22 132 2934 0
What we know about Mercedes-Benz GLC 2022- 小狗漫步02/11/22 132 2941 0
What we know about Hyundai Santa Fe 2022- 小狗漫步02/10/22 132 2944 0
What we know about Hyundai Elantra 2022- 小狗漫步02/09/22 132 2960 0
What we know about Jeep Cherokee 2022- 小狗漫步02/09/22 132 2970 0
What we know about Audi e-tron 2022- 小狗漫步02/07/22 132 2960 0
What we know about Audi A5 2022- 小狗漫步02/06/22 132 2986 0
What we know about Porsche Panamera 2022- 小狗漫步02/05/22 132 2992 0
What we know about Audi Q8 2022- 小狗漫步02/04/22 132 3004 0
What we know about Porsche Macan GTS 2022- 小狗漫步02/04/22 132 2991 0
What we know about Kia Rio 2022- 小狗漫步02/02/22 132 3013 0
What we know about Nissan Juke 2022- 小狗漫步02/01/22 132 3032 0
What we know about Audi Q7 2022- 小狗漫步01/31/22 132 3038 0
What we know about BMW M3 2022- 小狗漫步01/31/22 132 3056 0
What we know about Toyota Hilux 2022.- 小狗漫步01/29/22 132 2885 0
What we know about Audi A6 2022- 小狗漫步01/27/22 132 2908 0
What we know about Kia Carnival 2022- 小狗漫步01/26/22 132 2907 0
What we know about Chevrolet Camaro 2022- 小狗漫步01/24/22 132 2887 0
What we know about Toyota Carmy 2022- 小狗漫步01/23/22 132 2890 0
What we know about Porsche Taycan 2022- 小狗漫步01/22/22 132 2849 0
What we know about BMW X3 2022- 小狗漫步01/21/22 132 2891 0
What we know about Land Rover Defender 2022- 小狗漫步01/21/22 132 2859 0
What we know about Honda Accord 2022- 小狗漫步01/19/22 132 2875 0
What we know about BMW X6 2022- 小狗漫步01/18/22 132 2886 0
What we know about Honda CRV 2022- 小狗漫步01/15/22 132 2908 0
What we know about Audi Q3 2022- 小狗漫步01/13/22 132 2902 0
What we know about Volvo XC40 2022- 小狗漫步01/10/22 132 2972 0
Della Terra房车评测- sc880801/09/22 11758 2932 0
What we know about Mazda CX-5 2022- 小狗漫步01/07/22 132 3023 0
What we know about Mazda 3 2022- 小狗漫步01/05/22 132 3013 0
What we know about BMW X5 2022- 小狗漫步01/05/22 132 3030 0
2022 honda civic- 小狗漫步12/31/21 132 3088 0
视频 自驾游者 芯片钥匙不能启动车- 有哲12/30/21 3754 3112 0
What we know about Porsche Macan 2022- 小狗漫步12/29/21 132 3125 0
What we know about Porsche Cayenne 2022- 小狗漫步12/23/21 132 3165 0
The legend of Porsche Cayenne from the old to the - 小狗漫步12/14/21 132 3158 0
中法驾照免考互换 到法国直接自驾游 【原创干货】- 法国异闻录11/23/21 2303 3200 0
5 Reasons Why You Should Buy an Electric Vehicle- 小狗漫步11/15/21 132 3275 0
2022 Cadillac CT4-V Blackwing Review ,Exterior ,In- 小狗漫步10/19/21 132 3457 0
我在美國開大卡005-駕校教什麼?考試怎麼考?- didijoe10/18/21 160 3469 0
我在美國開大卡004--考駕照要花多少錢?學多久?- didijoe10/18/21 164 3484 0
我在美國開大卡003—怎樣一次就通過CDL 三科電腦考試- didijoe10/18/21 167 3432 0
我在美國開大卡002--要合理合法地開大卡,攏共分幾步?- didijoe10/18/21 160 3442 0
我在美國開大卡001---我為什麼開大卡?三大原因:- didijoe10/18/21 155 3500 0
China aerospace has opened up - suibian200910/18/21 449 3393 0
BMW M3 2022- 小狗漫步10/17/21 186 3884 0
2022 Audi Q7 Review ,Exterior ,Interior ,Trims & S- 小狗漫步10/09/21 132 3582 0
2022 Audi A6 Review ,Exterior ,Interior ,Trims & S- 小狗漫步10/07/21 132 3634 0
2022 Volvo XC40 Recharge Review Exterior, Interior- 小狗漫步10/04/21 132 3725 0
2022 Volvo V90 Cross Country Review Exterior, Inte- 小狗漫步10/03/21 132 3708 0
2022 Kia Sorento Hybrid Exterior, Interior,Present- 小狗漫步10/02/21 132 3545 0
2022 Lamborghini Huracan STO Review- 小狗漫步10/01/21 132 3511 0
2022 Mercedes-Benz SUV Lineup: What’s New With the- 小狗漫步09/28/21 132 3597 0
Shocker: 2022 Rivian R1T Proves Electricity Is Bet- 小狗漫步09/25/21 132 3643 0
Is the Audi Q8 bigger than the Q7? Is the Audi Q8 - 小狗漫步09/15/21 132 3971 0
Is a BMW X5 a good car? How much should I pay for - 小狗漫步09/12/21 132 4181 0
What is the price of BMW car X6? Is a BMW X6 a goo- 小狗漫步09/12/21 132 4255 0
Is the BMW 3 Series a good car? Which BMW 3 Series- 小狗漫步09/11/21 132 4512 0
Is BMW i3 worth buying? Why is the BMW i3 so expen- 小狗漫步09/09/21 132 4835 0
2022 BMW iX: What We Know So Far - Car and Driver- 小狗漫步09/08/21 132 5018 0
The Mercedes-AMG G63 is one of the most desir- 小狗漫步09/07/21 132 5233 0
2022 LEGACY OUTBACK Review Specification & Present- 小狗漫步09/03/21 132 5293 0
BMW eDrive performance meets the latest digital ex- 小狗漫步09/02/21 132 5298 0
2022 Lucid Air Review Specification & Presentation- 小狗漫步08/27/21 132 5323 0
Infiniti QX60 Review- 小狗漫步08/26/21 132 5098 0
2021 Lexus IS 350 F Sport Review Specification & P- 小狗漫步08/24/21 132 4868 0
2021 Dodge Challenger Review Specification & Prese- 小狗漫步08/23/21 132 4493 0
2021 Chevrolet Suburban Review Specification & Pre- 小狗漫步08/22/21 132 4320 0
2021 Nissan Armada Review Specification & Presenta- 小狗漫步08/21/21 132 4081 0
2022 Lincoln Navigator Review Specification & Pres- 小狗漫步08/20/21 132 4151 0
The All New 2022 Nissan Z Proto :front the old to - 小狗漫步08/17/21 132 4089 0
2022 日产全新 Aura Nismo e Power 发布- 小狗漫步08/17/21 132 4046 0
2022 Nissan Frontier a midsize pickup that can hol- 小狗漫步08/16/21 132 3974 0
21世纪新政21st Century New Deal(25- haxesn_00107/30/21 131704 4073 0
2022 Toyota Prius Review Specification & Presentat- 小狗漫步07/29/21 132 4145 0
Land Rover Defender Adventures Review Specificatio- 小狗漫步07/27/21 132 3998 0
2022 Audi RS- eTron Review Specification & Present- 小狗漫步07/24/21 132 3933 0
2022 Audi Q7- 小狗漫步06/28/21 132 4205 0
BMW iX3 with a number of Connected Drive services- 小狗漫步06/28/21 132 4260 0
2022 Audi Q4 e-tron- 小狗漫步06/27/21 132 4399 0
This is Polestar 2 in the Euro NCAP Full-Width Rig- 小狗漫步06/26/21 132 4461 0
2021 Subaru Outback Base- 小狗漫步06/25/21 132 4518 0
The first-ever BMW iX3- 小狗漫步06/25/21 132 4416 0
BMW i3 and BMW i3s | Electric cars- 小狗漫步06/23/21 132 4476 0
【视频】DIY 给Toyota RAV4 雨刮换胶条环保又省- 来来爸06/17/21 674 4348 0
2022 Citroen C5 X Review- 小狗漫步06/16/21 132 4370 0
【视频】DIY 给Toyota Rav4 2008 换刹车片- 来来爸06/14/21 1377 4301 1
08/02/21 86 507
2022 Toyota Corolla Cross Reveal & Overview- 小狗漫步06/03/21 132 4272 0
[ 首页 ] [ 上页 ] [ 下页 ] [ 末页 ]
 第 1 页  [1]  [2]  [3]  [4]  [5]  [6]  [7]  [8]  [9]  [10]  [11]  [12]  [13]  [14]  [15]  跳转到
相 关 链 接